Simultaneous Nadir Overpasses (SNOs) Predictions

Prediction of SNOs over PacNW region [( 10.00, 139.50) to ( 22.70, 165.60)] between AQUA and NPP Satellites:

Table of predicted SNOs over PacNW region for the next 30.0 days since TLE Epoch: 6/17/2023
Index Date (AQUA) Time (AQUA) AQUA Lat,Lon Date (NPP) Time (NPP) NPP Lat,Lon Distance(km) Time Diff (sec)
1 06/18/2023 16:03:23 22.05, 149.95 06/18/2023 16:03:13 23.04, 144.63 558.00 10
2 07/01/2023 15:20:20 19.11, 160.37 07/01/2023 15:19:21 20.15, 155.05 569.20 59
3 07/04/2023 03:38:40 22.68, 149.47 07/04/2023 03:35:10 24.38, 143.93 595.40 210
